Regional Weather Roundup
Issued by NWS

Home | Current Version | Previous Version | Graphics & Text | Print | Product List | Glossary On
Versions: 1 2 3 4 5 6 7 8 9 10 11 12 13 14 15 16 17 18 19 20 21 22 23 24 25 26 27 28 29 30 31 32 33 34 35 36 37 38 39 40 41 42 43 44 45 46 47 48 49 50
000
ASUS43 KLMK 022310
RWRKY
KENTUCKY REGIONAL WEATHER ROUNDUP
NATIONAL WEATHER SERVICE LOUISVILLE KY
700 PM EDT WED SEP 02 2015

NOTE "FAIR" INDICATES FEW OR NO CLOUDS BELOW 12,000 FEET
WITH NO SIGNIFICANT WEATHER AND/OR OBSTRUCTIONS TO VISIBILITY.

KYZ001>023-026-027-061>063-070>075-030000-
WESTERN AND SOUTH CENTRAL KENTUCKY

CITY           SKY/WX    TMP DP  RH WIND       PRES   REMARKS
PADUCAH        SUNNY     88  69  53 SE5       29.99F HX  92
HENDERSON      SUNNY     90  66  45 CALM      29.99S HX  92
OWENSBORO      SUNNY     90  70  51 CALM      30.00F HX  95
HOPKINSVILLE   MOSUNNY   88  68  51 N3        30.00F HX  91
BOWLING GREEN  MOSUNNY   90  65  43 E8        30.02S HX  92
GLASGOW        SUNNY     88  62  41 CALM      30.03R
$$

KYZ024-025-028>034-038-045-046-053-030000-
NORTH CENTRAL KENTUCKY

CITY           SKY/WX    TMP DP  RH WIND       PRES   REMARKS
LOUISVILLE/SDF MOSUNNY   89  65  44 SW7       30.00F HX  91
LOUISVILLE/LOU MOSUNNY   86  66  51 S5        30.02S
FORT KNOX      MOSUNNY   83  69  61 SW2       30.01F
$$

KYZ035>037-039>044-047>052-055>060-089>105-030000-
NORTHEAST KENTUCKY

CITY           SKY/WX    TMP DP  RH WIND       PRES   REMARKS
LEXINGTON      SUNNY     87  66  49 W5        30.03F
COVINGTON      MOSUNNY   87  67  51 W8        30.02S HX  90
FRANKFORT      SUNNY     87  65  47 NW5       30.02F
$$

KYZ054-064>069-076>088-106>120-030000-
SOUTHEAST KENTUCKY

CITY           SKY/WX    TMP DP  RH WIND       PRES   REMARKS
JACKSON        SUNNY     83  66  56 CALM      30.06S
LONDON         MOSUNNY   88  60  38 NW5       30.05F
SOMERSET       MOSUNNY   86  61  42 NW3       30.05S
MIDDLESBORO    MOSUNNY   83  70  64 W3        30.05S
MONTICELLO     PTCLDY    88  68  51 CALM      30.07S HX  91
$$




USA.gov is the U.S. government's official web portal to all federal, state and local government web resources and services.